This is the latest recevied weather packets stored in our database for station/object HB9HFD-13. If no packets are shown the sender has not sent any weather packets the latest 10 day(s).
| Time | Temp. | Humidity | Pressure | Rain* | Wind** | Luminosity | Snow |
|---|---|---|---|---|---|---|---|
| 1788135878 | 70° F | 69% | 762.3 mmHg | 0 in | - | - | - |
| 1788135578 | 70° F | 71% | 762.2 mmHg | 0 in | - | - | - |
| 1788135277 | 69° F | 73% | 762.1 mmHg | 0 in | - | - | - |
| 1788134977 | 69° F | 73% | 762.1 mmHg | 0 in | - | - | - |
| 1788134677 | 69° F | 74% | 762.1 mmHg | 0 in | - | - | - |
| 1788134376 | 69° F | 74% | 762 mmHg | 0 in | - | - | - |
| 1788134076 | 69° F | 73% | 762.1 mmHg | 0 in | - | - | - |
| 1788133776 | 70° F | 73% | 762.1 mmHg | 0 in | - | - | - |
| 1788133476 | 70° F | 72% | 762.1 mmHg | 0 in | - | - | - |
| 1788133176 | 70° F | 73% | 762 mmHg | 0 in | - | - | - |
| 1788132875 | 69° F | 73% | 761.8 mmHg | 0 in | - | - | - |
| 1788132575 | 69° F | 74% | 761.8 mmHg | 0 in | - | - | - |
| 1788132275 | 67° F | 79% | 761.8 mmHg | 0 in | - | - | - |
| 1788131974 | 66° F | 81% | 761.8 mmHg | 0 in | - | - | - |
| 1788131674 | 66° F | 82% | 761.7 mmHg | 0 in | - | - | - |
| 1788131374 | 65° F | 84% | 761.8 mmHg | 0 in | - | - | - |
| 1788131074 | 65° F | 84% | 761.7 mmHg | 0 in | - | - | - |
| 1788130773 | 66° F | 84% | 761.6 mmHg | 0 in | - | - | - |
| 1788130473 | 66° F | 84% | 761.5 mmHg | 0 in | - | - | - |
| 1788130173 | 66° F | 83% | 761.5 mmHg | 0 in | - | - | - |
| 1788129872 | 66° F | 80% | 761.4 mmHg | 0 in | - | - | - |
| 1788129572 | 66° F | 80% | 761.4 mmHg | 0.05 in | - | - | - |
| 1788129272 | 67° F | 80% | 761.4 mmHg | 0.07 in | - | - | - |
| 1788128972 | 67° F | 78% | 761.2 mmHg | 0.07 in | - | - | - |
| 1788128671 | 67° F | 77% | 761.2 mmHg | 0.07 in | - | - | - |
* Rain latest hour (hover to see other rain measurements)
** Current wind speed in m/s (hover to see current wind gust speed)